Torna al catalogo

SL-12 DEB

LostHEO
NORAD 45034·DEBRIS·🇷🇺 Russia

Lanciato Dec 14, 2009 da Baikonur Cosmodrome

Loading…

Prossimi Passaggi (prossime 24 ore)

TLE

ObsoletoSource: Space-Track

Epoca: Feb 19, 2020, 01:14 UTC

1 45034U 09070M   20050.05146549  .00072452  00000-0  43782-1 0  9998
2 45034  64.8374  17.4457 5813857  26.5050 354.0867  4.24692842  1738

Traccia SL-12 DEB in tempo reale con AllMySat

Download on the App Store